CW1923 Weather Reports


Display with metric or nautical units.
time (UTC)temp
F
wind
direction
speed
MPH
gust
MPH
rain 1hr
in
rain 24hr
in
rain mn
in
humidity
%
barometer
mb
20260831002144 65 301 4.0 9.0 0.02 0.02 0.02 90 1010.2
20260831001146 65 282 4.0 12.0 0.02 0.02 0.01 89 1010.2
20260831000641 65 282 4.0 14.0 0.01 0.02 0.01 89 1010.2
20260831000139 65 319 4.0 14.0 0.01 0.02 0.01 90 1010.1
20260830235137 64 156 2.0 5.0 0.00 0.01 0.00 90 1009.9
20260830234636 64 156 2.0 7.0 0.00 0.01 0.00 90 1010.0
20260830234136 64 154 2.0 7.0 0.00 0.01 0.00 90 1010.0
20260830233636 64 153 2.0 7.0 0.00 0.01 0.00 91 1010.0
20260830233133 64 172 2.0 7.0 0.00 0.01 0.00 91 1010.1
20260830232633 64 178 2.0 9.0 0.00 0.01 0.00 91 1010.0
20260830232134 64 178 2.0 9.0 0.00 0.01 0.00 91 1009.8
20260830231633 64 175 0.0 5.0 0.00 0.01 0.00 91 1010.0
20260830231133 64 168 2.0 5.0 0.00 0.01 0.00 91 1010.0
20260830230635 64 168 2.0 5.0 0.00 0.01 0.00 91 1010.2
20260830225632 64 156 0.0 5.0 0.00 0.01 0.00 91 1010.0
20260830225132 64 153 0.0 0.0 0.00 0.01 0.00 91 1010.1
20260830224632 64 153 0.0 0.0 0.00 0.01 0.00 91 1010.2
20260830224105 64 153 0.0 0.0 0.00 0.01 0.00 91 1010.3
20260830223106 64 153 0.0 0.0 0.00 0.01 0.00 90 1010.2
20260830222102 64 153 0.0 0.0 0.00 0.01 0.00 90 1010.2
20260830221048 64 153 0.0 0.0 0.00 0.01 0.00 89 1010.3
20260830220547 64 153 0.0 0.0 0.00 0.01 0.00 90 1010.3
20260830220040 65 153 0.0 0.0 0.00 0.01 0.00 90 1010.3
20260830215534 65 153 0.0 0.0 0.00 0.01 0.01 89 1010.3
20260830215035 65 153 0.0 2.0 0.00 0.01 0.01 89 1010.3
20260830214532 65 153 0.0 2.0 0.00 0.01 0.01 89 1010.3
20260830214033 65 153 0.0 2.0 0.00 0.01 0.01 89 1010.4
20260830213528 65 153 0.0 0.0 0.00 0.01 0.01 89 1010.4
20260830213030 65 153 0.0 0.0 0.00 0.01 0.01 89 1010.5
20260830212521 65 153 0.0 0.0 0.00 0.01 0.01 89 1010.6
20260830212018 65 153 0.0 0.0 0.00 0.01 0.01 89 1010.6
20260830211506 65 153 0.0 0.0 0.00 0.01 0.01 89 1010.6
20260830211008 65 153 0.0 2.0 0.00 0.01 0.01 89 1010.5
20260830210004 65 153 2.0 7.0 0.00 0.01 0.01 89 1010.6
20260830205450 65 141 2.0 5.0 0.00 0.01 0.01 89 1010.6
20260830204946 65 132 4.0 12.0 0.00 0.01 0.01 89 1010.6
20260830203940 65 178 0.0 2.0 0.00 0.01 0.01 88 1010.7
20260830203434 65 178 0.0 2.0 0.00 0.01 0.01 88 1010.7
20260830202934 65 178 0.0 0.0 0.00 0.01 0.01 88 1010.6
20260830202432 65 178 0.0 2.0 0.00 0.01 0.01 88 1010.6
20260830201930 65 178 0.0 2.0 0.00 0.02 0.01 88 1010.6
20260830200931 66 178 0.0 2.0 0.00 0.02 0.01 88 1010.7
20260830200434 66 178 0.0 2.0 0.00 0.02 0.01 88 1010.8
20260830194937 66 178 0.0 4.0 0.00 0.02 0.01 87 1010.8
20260830194432 66 178 0.0 4.0 0.00 0.02 0.01 87 1010.9
20260830193933 66 178 0.0 5.0 0.00 0.02 0.01 87 1011.0
20260830193423 66 178 2.0 5.0 0.00 0.02 0.01 87 1010.9
20260830192920 66 178 2.0 5.0 0.00 0.02 0.01 86 1011.0
20260830192422 66 178 2.0 7.0 0.00 0.02 0.01 86 1011.1
20260830191922 66 178 2.0 7.0 0.00 0.02 0.01 86 1011.1
20260830191418 66 179 4.0 11.0 0.00 0.02 0.01 86 1011.1
20260830190916 66 214 2.0 11.0 0.00 0.02 0.01 86 1011.1
20260830185918 67 189 2.0 9.0 0.00 0.02 0.01 86 1011.2
20260830184916 67 195 2.0 7.0 0.01 0.02 0.01 86 1011.1
20260830184417 67 195 4.0 7.0 0.01 0.02 0.01 86 1011.1
20260830183916 67 195 2.0 7.0 0.01 0.02 0.01 86 1011.1
20260830183416 67 152 2.0 7.0 0.01 0.02 0.01 86 1011.1
20260830182912 67 141 2.0 5.0 0.01 0.02 0.01 85 1011.2
20260830182412 67 140 2.0 5.0 0.01 0.02 0.01 85 1011.3
20260830181911 68 136 2.0 5.0 0.01 0.02 0.01 84 1011.3
20260830181409 68 134 2.0 5.0 0.01 0.02 0.01 84 1011.2
20260830180907 68 1 2.0 9.0 0.01 0.02 0.01 83 1011.4
20260830180408 69 142 4.0 9.0 0.01 0.02 0.01 81 1011.4
20260830175910 69 188 4.0 7.0 0.01 0.02 0.01 80 1011.5
20260830174908 71 155 2.0 14.0 0.00 0.01 0.00 75 1011.4
20260830174406 71 174 2.0 7.0 0.00 0.01 0.00 73 1011.5
20260830173907 72 172 2.0 5.0 0.00 0.01 0.00 72 1011.3
20260830173407 72 169 2.0 5.0 0.00 0.01 0.00 72 1011.3
20260830172904 72 168 2.0 4.0 0.00 0.01 0.00 71 1011.3
20260830171902 72 168 0.0 5.0 0.00 0.01 0.00 71 1011.3
20260830171408 72 168 0.0 4.0 0.00 0.01 0.00 71 1011.3
20260830170404 73 168 2.0 7.0 0.00 0.01 0.00 70 1011.4
20260830165902 73 247 2.0 7.0 0.00 0.01 0.00 70 1011.6
20260830164904 73 201 4.0 9.0 0.00 0.01 0.00 69 1011.7
20260830164402 73 210 2.0 11.0 0.00 0.01 0.00 69 1011.6
20260830163904 73 203 2.0 11.0 0.00 0.01 0.00 69 1011.6
20260830163404 73 230 2.0 7.0 0.00 0.01 0.00 69 1011.6
20260830162859 73 179 4.0 7.0 0.00 0.01 0.00 69 1011.7
20260830162354 73 175 4.0 12.0 0.00 0.01 0.00 68 1011.7
20260830161854 73 267 4.0 12.0 0.00 0.01 0.00 68 1011.7
20260830161353 73 185 4.0 7.0 0.00 0.01 0.00 68 1011.8
20260830160853 73 178 4.0 7.0 0.00 0.01 0.00 68 1011.7
20260830160352 73 160 4.0 9.0 0.00 0.01 0.00 67 1011.7
20260830155849 73 231 4.0 11.0 0.00 0.01 0.00 67 1011.8
20260830155350 73 135 4.0 11.0 0.00 0.01 0.00 67 1011.8
20260830154848 73 284 4.0 11.0 0.00 0.01 0.00 66 1011.9
20260830154349 73 285 4.0 12.0 0.00 0.01 0.00 66 1011.8
20260830153847 74 168 4.0 12.0 0.00 0.02 0.00 66 1011.9
20260830153346 74 284 4.0 14.0 0.00 0.02 0.00 66 1011.8
20260830152848 74 299 5.0 14.0 0.00 0.02 0.00 64 1011.9
20260830152345 74 346 4.0 12.0 0.00 0.02 0.00 64 1011.9
20260830151845 75 172 4.0 12.0 0.00 0.05 0.00 64 1011.9
20260830151344 75 220 4.0 9.0 0.00 0.06 0.00 64 1011.9
20260830150847 75 295 4.0 14.0 0.00 0.06 0.00 64 1012.0
20260830150340 74 154 5.0 14.0 0.00 0.07 0.00 65 1012.1
20260830145840 74 260 5.0 18.0 0.00 0.08 0.00 65 1012.0
20260830144840 74 317 5.0 16.0 0.00 0.10 0.00 64 1012.1
20260830143840 74 280 5.0 14.0 0.00 0.10 0.00 61 1012.1
20260830143340 74 326 5.0 20.0 0.00 0.10 0.00 62 1012.1
20260830142838 74 114 7.0 20.0 0.00 0.10 0.00 63 1012.2
20260830142341 74 280 5.0 18.0 0.00 0.10 0.00 63 1012.3
20260830141840 74 30 5.0 18.0 0.00 0.10 0.00 62 1012.2
20260830141339 75 65 5.0 18.0 0.00 0.10 0.00 62 1012.2
20260830140836 74 299 5.0 18.0 0.00 0.10 0.00 63 1012.3
20260830140336 74 174 7.0 18.0 0.00 0.10 0.00 65 1012.3
20260830135836 74 303 5.0 18.0 0.00 0.10 0.00 65 1012.3
20260830135336 74 262 5.0 18.0 0.00 0.10 0.00 66 1012.3
20260830134834 74 166 5.0 18.0 0.00 0.10 0.00 65 1012.4
20260830134335 74 192 5.0 18.0 0.00 0.10 0.00 65 1012.4
20260830133833 74 215 4.0 11.0 0.00 0.10 0.00 65 1012.5
20260830133334 74 302 5.0 14.0 0.00 0.10 0.00 66 1012.5
20260830132834 74 163 5.0 14.0 0.00 0.10 0.00 66 1012.7
20260830132331 73 108 5.0 18.0 0.00 0.10 0.00 66 1012.7
20260830131832 73 128 5.0 18.0 0.00 0.10 0.00 66 1012.7
20260830131333 74 168 5.0 16.0 0.00 0.10 0.00 66 1012.7
20260830130332 74 123 5.0 23.0 0.00 0.10 0.00 67 1012.8
20260830125834 74 342 5.0 16.0 0.00 0.10 0.00 66 1012.7
20260830125331 74 157 7.0 18.0 0.00 0.10 0.00 66 1012.6
20260830124832 74 152 7.0 18.0 0.00 0.10 0.00 67 1012.7
20260830124332 74 150 5.0 20.0 0.00 0.11 0.00 68 1012.6
20260830123832 73 170 5.0 20.0 0.00 0.11 0.00 68 1012.7
20260830123330 73 124 5.0 14.0 0.00 0.12 0.00 69 1012.6
20260830122833 73 208 5.0 16.0 0.00 0.12 0.00 68 1012.8
20260830122332 73 180 5.0 16.0 0.00 0.12 0.00 69 1012.7
20260830121830 73 146 4.0 16.0 0.00 0.12 0.00 69 1012.7
20260830120832 72 319 7.0 20.0 0.00 0.12 0.00 70 1012.7
20260830115833 73 285 5.0 20.0 0.00 0.12 0.00 69 1012.6
20260830115334 73 30 5.0 14.0 0.00 0.12 0.00 69 1012.4
20260830114833 73 319 5.0 16.0 0.00 0.12 0.00 70 1012.5
20260830114332 73 344 7.0 16.0 0.00 0.12 0.00 70 1012.5
20260830113831 72 327 9.0 22.0 0.00 0.12 0.00 70 1012.4
20260830112833 73 285 9.0 22.0 0.00 0.12 0.00 69 1012.4
20260830112327 73 241 7.0 18.0 0.00 0.12 0.00 69 1012.4
20260830111828 73 286 7.0 18.0 0.00 0.12 0.00 68 1012.4
20260830110825 73 332 7.0 20.0 0.00 0.12 0.00 69 1012.4
20260830105821 72 116 9.0 25.0 0.00 0.12 0.00 70 1012.4
20260830105320 72 298 9.0 23.0 0.00 0.12 0.00 70 1012.3
20260830104823 73 153 7.0 23.0 0.00 0.12 0.00 69 1012.5
20260830104321 73 350 9.0 22.0 0.00 0.12 0.00 71 1012.4
20260830103319 72 296 7.0 20.0 0.00 0.12 0.00 73 1012.5
20260830102823 71 5 7.0 20.0 0.00 0.12 0.00 73 1012.6
20260830102320 71 246 7.0 22.0 0.00 0.12 0.00 74 1012.5
20260830101818 70 244 9.0 23.0 0.00 0.12 0.00 75 1012.4
20260830101317 70 272 7.0 23.0 0.00 0.12 0.00 77 1012.5
20260830100818 69 113 7.0 22.0 0.00 0.12 0.00 77 1012.6
20260830100321 69 268 9.0 23.0 0.00 0.12 0.00 78 1012.4
20260830095806 69 310 11.0 23.0 0.00 0.12 0.00 78 1012.4
20260830095307 69 307 11.0 22.0 0.00 0.12 0.00 78 1012.5
20260830094806 69 269 9.0 23.0 0.00 0.12 0.00 78 1012.3
20260830094308 69 291 7.0 23.0 0.00 0.12 0.00 78 1012.3
20260830093807 69 278 5.0 18.0 0.00 0.12 0.00 78 1012.3
20260830093306 69 268 7.0 25.0 0.00 0.12 0.00 78 1012.3
20260830092807 69 181 9.0 25.0 0.00 0.12 0.00 79 1012.3
20260830092308 69 287 9.0 34.0 0.00 0.12 0.00 79 1012.2
20260830091809 69 284 11.0 34.0 0.00 0.12 0.00 79 1012.2
20260830090808 68 315 9.0 23.0 0.00 0.12 0.00 80 1012.2
20260830090308 68 327 7.0 23.0 0.00 0.12 0.00 80 1012.0
20260830085808 68 96 9.0 22.0 0.00 0.12 0.00 80 1012.1
20260830085307 68 293 7.0 27.0 0.00 0.12 0.00 81 1012.0
20260830084805 68 282 7.0 27.0 0.00 0.12 0.00 81 1011.9
20260830084304 68 119 7.0 23.0 0.00 0.12 0.00 81 1011.8
20260830083807 68 285 9.0 25.0 0.00 0.12 0.00 82 1011.9
20260830082805 67 41 9.0 25.0 0.00 0.12 0.00 83 1011.8
20260830081801 67 284 7.0 20.0 0.00 0.12 0.00 83 1011.8
20260830081300 66 272 7.0 22.0 0.00 0.12 0.00 84 1011.7
20260830080759 66 301 7.0 22.0 0.00 0.12 0.00 84 1011.7
20260830080301 66 312 7.0 18.0 0.00 0.12 0.00 84 1011.6
20260830075759 66 276 7.0 18.0 0.00 0.12 0.00 84 1011.6
20260830074756 66 308 7.0 27.0 0.00 0.12 0.00 85 1011.5
20260830074255 65 279 7.0 20.0 0.00 0.12 0.00 86 1011.4
20260830073757 65 326 7.0 23.0 0.00 0.12 0.00 86 1011.4
20260830073256 65 293 7.0 23.0 0.00 0.12 0.00 86 1011.3
20260830072754 65 264 7.0 22.0 0.00 0.12 0.00 86 1011.4
20260830072252 65 345 9.0 22.0 0.00 0.12 0.00 85 1011.3
20260830071753 66 306 9.0 20.0 0.00 0.12 0.00 85 1011.1
20260830071252 66 315 9.0 22.0 0.00 0.12 0.00 85 1011.2
20260830070751 66 298 9.0 25.0 0.00 0.12 0.00 85 1010.9
20260830070249 65 283 9.0 25.0 0.00 0.12 0.00 85 1010.9
20260830065752 65 286 7.0 23.0 0.00 0.12 0.00 86 1010.9
20260830065251 65 289 7.0 18.0 0.00 0.12 0.00 86 1010.8
20260830064247 65 305 5.0 22.0 0.00 0.12 0.00 86 1010.7
20260830063746 65 307 7.0 22.0 0.00 0.12 0.00 86 1010.8
20260830063245 64 319 7.0 22.0 0.00 0.12 0.00 86 1010.6
20260830062746 64 307 9.0 27.0 0.00 0.12 0.00 86 1010.6
20260830062245 64 25 9.0 27.0 0.00 0.12 0.00 87 1010.5
20260830061746 64 330 7.0 22.0 0.00 0.12 0.00 87 1010.4
20260830061248 64 64 5.0 16.0 0.00 0.12 0.00 87 1010.4
20260830060748 64 330 5.0 18.0 0.00 0.12 0.00 86 1010.2
20260830055741 64 120 7.0 27.0 0.00 0.12 0.00 86 1010.2
20260830055239 64 302 7.0 27.0 0.00 0.12 0.00 86 1010.2
20260830054739 64 288 7.0 22.0 0.00 0.12 0.00 86 1010.1
20260830054239 64 303 7.0 18.0 0.00 0.12 0.00 86 1010.0
20260830053731 64 311 7.0 16.0 0.00 0.12 0.00 86 1010.0
20260830053232 64 181 5.0 14.0 0.00 0.12 0.00 86 1010.0
20260830052733 64 182 7.0 14.0 0.00 0.12 0.00 86 1009.9
20260830052227 64 19 7.0 16.0 0.00 0.12 0.00 86 1009.9
20260830051226 64 156 7.0 23.0 0.00 0.12 0.00 86 1009.7
20260830050726 64 137 7.0 23.0 0.00 0.12 0.00 85 1009.8
20260830050227 64 66 5.0 18.0 0.00 0.12 0.00 85 1009.7
20260830045727 65 324 5.0 22.0 0.00 0.12 0.00 85 1009.6
20260830045223 65 300 7.0 25.0 0.00 0.12 0.00 85 1009.5
20260830044720 65 278 7.0 25.0 0.00 0.12 0.00 85 1009.5
20260830044221 65 239 5.0 18.0 0.00 0.12 0.00 85 1009.5
20260830043721 65 300 5.0 16.0 0.00 0.12 0.00 85 1009.5
20260830043219 65 318 7.0 18.0 0.00 0.12 0.00 85 1009.5
20260830042722 65 327 9.0 29.0 0.00 0.12 0.00 85 1009.4
20260830042219 65 326 9.0 29.0 0.00 0.12 0.00 85 1009.4
20260830041718 65 303 7.0 27.0 0.00 0.12 0.00 85 1009.4
20260830041217 65 314 5.0 29.0 0.00 0.12 0.00 85 1009.4
20260830040717 65 280 7.0 29.0 0.00 0.12 0.00 85 1009.3
20260830040216 65 74 7.0 25.0 0.00 0.12 0.00 85 1009.3
20260830035717 65 321 7.0 22.0 0.00 0.12 0.00 84 1009.3
20260830035215 65 280 7.0 22.0 0.00 0.12 0.00 84 1009.3
20260830034715 65 284 7.0 27.0 0.00 0.12 0.00 84 1009.4
20260830034217 65 270 7.0 27.0 0.00 0.12 0.00 84 1009.2
20260830033718 65 268 7.0 23.0 0.00 0.12 0.00 84 1009.3
20260830033214 65 229 7.0 23.0 0.00 0.12 0.00 84 1009.3
20260830032713 65 288 5.0 22.0 0.00 0.12 0.00 84 1009.3
20260830032214 65 309 7.0 22.0 0.00 0.12 0.00 84 1009.4
20260830031713 65 262 9.0 25.0 0.00 0.12 0.00 84 1009.3
20260830031208 65 134 9.0 25.0 0.00 0.12 0.00 84 1009.3
20260830030708 65 35 7.0 20.0 0.00 0.12 0.00 84 1009.2
20260830030210 65 318 5.0 18.0 0.00 0.12 0.00 85 1009.2
20260830025206 65 143 7.0 20.0 0.00 0.12 0.00 85 1009.2
20260830024705 65 295 7.0 20.0 0.00 0.12 0.00 85 1009.2
20260830024205 65 318 7.0 22.0 0.00 0.12 0.00 85 1009.3
20260830023204 65 35 7.0 20.0 0.00 0.12 0.00 85 1009.2
20260830022703 65 320 5.0 18.0 0.00 0.12 0.00 85 1009.3
20260830022207 65 307 7.0 20.0 0.00 0.12 0.00 85 1009.2
20260830021704 65 106 7.0 31.0 0.00 0.12 0.00 85 1009.2
20260830021206 65 301 7.0 31.0 0.00 0.12 0.00 85 1009.3
20260830020206 64 261 5.0 14.0 0.00 0.12 0.00 85 1009.1
20260830015705 64 141 7.0 16.0 0.00 0.12 0.00 86 1009.1
20260830014205 64 168 5.0 23.0 0.00 0.12 0.00 86 1009.1
20260830013201 64 21 5.0 14.0 0.00 0.12 0.00 86 1009.0
20260830012200 65 345 5.0 18.0 0.00 0.12 0.00 86 1009.0
20260830011704 65 357 5.0 14.0 0.00 0.12 0.00 85 1008.9
20260830011158 65 25 5.0 14.0 0.00 0.12 0.00 85 1008.9
20260830010203 65 114 5.0 22.0 0.00 0.12 0.00 85 1008.8
20260830005658 65 172 5.0 22.0 0.00 0.12 0.00 85 1008.8
20260830005158 65 280 5.0 22.0 0.00 0.12 0.00 85 1008.8
20260830004656 65 350 7.0 22.0 0.00 0.12 0.00 84 1008.8
20260830004158 65 311 7.0 27.0 0.00 0.12 0.00 84 1008.8
20260830003656 65 104 7.0 27.0 0.00 0.12 0.00 84 1008.7
20260830003154 65 257 7.0 22.0 0.00 0.12 0.00 84 1008.6
20260830002654 65 282 7.0 22.0 0.00 0.12 0.00 84 1008.6